Zurück zum Katalog

THOR ABLESTAR DEB

AktivLEO
NORAD 132·DEBRIS·🇺🇸 United States

Gestartet Jun 29, 1961 von Cape Canaveral Space Force Station

Loading…

Nächste Überflüge (nächste 24 Stunden)

TLE

AktuellSource: Space-Track

Epoche: Sep 9, 2026, 02:56 UTC

1 00132U 61015S   26252.12291290 -.00000006  00000-0  53203-4 0  9996
2 00132  66.6591 124.3975 0069595 137.4381 223.2123 13.94783319315375

Verfolge THOR ABLESTAR DEB in Echtzeit mit AllMySat

Download on the App Store